Flag for Germany Weather past 2 weeks in Kreuztal, North Rhine-Westphalia, Germany

Now
39 °F

Partly sunny.


Feels Like: 29 °F
Forecast: 36 / 48 °F
Wind: 22 mph from West

Location: Hessen

Current Time: Mar 30, 2015 at 12:56:06 PM

Latest Report: Mar 30, 2015 at 12:20 PM


Visibility: N/A

Pressure: 29.59 "Hg

Humidity: 70%

Dew point: 30 °F

Location of KreuztalLocation

Historic Weather in Kreuztal — Graph

°F

Kreuztal temperature yesterday

Maximum temperature yesterday: 46 °F (at 6:20 PM)
Minimum temperature yesterday: 43 °F (at 9:50 AM)
Average temperature yesterday: 44 °F

Past Weeks' High & Low Weather Summary

 TemperatureHumidityPressure
High59 °F (Mar 18, 2:20 PM)100% (Mar 15, 10:20 AM)30.30 "Hg (Mar 15, 10:20 AM)
Low30 °F (Mar 22, 7:20 AM)44% (Mar 18, 1:20 PM)29.30 "Hg (Mar 29, 8:50 PM)
Average42 °F81%29.99 "Hg
* Reported Mar 15 10:20 AM — Mar 30 11:50 AM, Kreuztal, Weather by CustomWeather, © 2015

Note: Actual official high and low records may vary slightly from our data, if they occured in-between our weather recording intervals... More about our weather records

Advertising

Kreuztal weather history for previous 24 hours

 ConditionsComfort  
Time TempWeatherWind HumidityBarometerVisibility
11:50 AM
Mon, Mar 30
39 °FPartly sunny.23 mph65%29.59 "HgN/A
11:20 AM39 °FBroken clouds.23 mph75%29.56 "HgN/A
10:50 AM37 °FScattered showers. Broken clouds.18 mph87%29.53 "HgN/A
10:20 AM37 °FScattered showers. Partly sunny.21 mph87%29.53 "HgN/A
9:50 AM37 °FPartly sunny.18 mph87%29.50 "HgN/A
9:20 AM37 °FPartly sunny.16 mph87%29.50 "HgN/A
8:50 AM36 °FPartly sunny.21 mph93%29.50 "HgN/A
8:20 AM37 °FPartly sunny.18 mph87%29.47 "HgN/A
7:50 AM36 °FPassing clouds.16 mph93%29.47 "HgN/A
8:50 PM
Sun, Mar 29
45 °FRain. Partly sunny.23 mph100%29.30 "Hg6 mi
8:20 PM46 °FRain. Partly sunny.24 mph100%29.33 "HgN/A
7:50 PM46 °FRain. Partly sunny.25 mph100%29.33 "Hg6 mi
7:20 PM46 °FPartly sunny.26 mph100%29.33 "HgN/A
6:50 PM46 °FRain. Partly sunny.25 mph100%29.36 "Hg6 mi
6:20 PM46 °FRain. Partly sunny.22 mph100%29.36 "Hg6 mi
5:50 PM45 °FRain. Partly sunny.20 mph100%29.39 "Hg6 mi
5:20 PM45 °FRain. Partly sunny.18 mph100%29.42 "HgN/A
4:50 PM45 °FRain. Partly sunny.18 mph100%29.42 "Hg4 mi
4:20 PM45 °FRain. Partly sunny.18 mph100%29.45 "HgN/A
3:50 PM45 °FRain. Partly sunny.16 mph100%29.47 "HgN/A
3:20 PM45 °FRain. Partly sunny.20 mph100%29.50 "Hg5 mi
2:50 PM45 °FRain. Partly sunny.17 mph100%29.53 "Hg4 mi
2:20 PM45 °FRain. Partly sunny.18 mph100%29.56 "Hg4 mi
1:50 PM43 °FRain. Partly sunny.17 mph100%29.56 "Hg4 mi
1:20 PM43 °FRain. Partly sunny.16 mph100%29.59 "Hg4 mi
12:50 PM43 °FRain. Broken clouds.17 mph100%29.62 "Hg6 mi
12:20 PM43 °FRain. Partly sunny.15 mph100%29.62 "Hg4 mi
Weather by CustomWeather, © 2015

See weather overviewHow to use our weather pages